Regional Weather Roundup
Issued by NWS Jackson, KY

Home | Current Version | Previous Version | Text Only | Print | Product List | Glossary Off
Versions: 1 2 3 4 5 6 7 8 9 10 11 12 13 14 15 16 17 18 19 20 21 22 23 24 25 26 27

000
ASUS43 KJKL 161810
RWRJKL

EAST KENTUCKY HOURLY WEATHER ROUNDUP
NATIONAL WEATHER SERVICE JACKSON KY
200 PM EDT WED AUG 16 2017

NOTE: "FAIR" INDICATES FEW OR NO CLOUDS BELOW 12,000 FEET WITH
NO SIGNIFICANT WEATHER AND/OR OBSTRUCTIONS TO VISIBILITY.

* THESE REPORTS ARE NOT UNDER NWS QUALITY CONTROL AND MAY NOT
  REPORT WEATHER SUCH AS PRECIPITATION AND FOG.

KYZ079-080-083-085-087-088-110-112-115-119-120-161900
...EASTERN KENTUCKY...

CITY           SKY/WX    TMP DP  RH WIND       PRES   REMARKS
JACKSON        CLOUDY    80  74  81 VRB3      30.08F
6HR MIN TEMP:  69; 6HR MAX TEMP:  83; 6HR PCP: TRACE;

LONDON         CLOUDY    83  71  67 SE5       30.06F
6HR MIN TEMP:  69; 6HR MAX TEMP:  83; 6HR PCP: TRACE;

SOMERSET*      CLOUDY    79  72  78 NE5       30.07F
MONTICELLO*    PTSUNNY   84  75  74 W13       30.08F HX  92
6HR MIN TEMP:  70; 6HR MAX TEMP:  87;

WILLIAMSBURG*  CLOUDY    84  73  70 SW6       30.06F HX  91
MIDDLESBORO*   PTSUNNY   86  71  62 SW5       30.08F HX  91
6HR MIN TEMP:  69; 6HR MAX TEMP:  86;

HARLAN APT*    CLOUDY    81  70  69 CALM      30.10F
PIKE CO APT*   CLOUDY    83  70  65 CALM      30.09F
BIG SANDY APT* MOCLDY    85  71  62 CALM      30.08F
6HR MIN TEMP:  69; 6HR MAX TEMP:  85;

MOREHEAD APT*  PTCLDY    84  68  58 S7        30.07F
$$

KYZ035-036-041-042-044-050-067-078-099-161900
...CENTRAL KENTUCKY...

CITY           SKY/WX    TMP DP  RH WIND       PRES   REMARKS
MT STERLING*   PTSUNNY   86  70  58 SW7       30.07F HX  90
FLEMING/MASON* SUNNY     88  71  56 S6        30.06F HX  93
DANVILLE*      PTSUNNY   82  72  69 SW8       30.07S
LEXINGTON      CLOUDY    82  73  74 S7        30.06F
6HR MIN TEMP:  72; 6HR MAX TEMP:  85; 6HR PCP:  0.46;

FRANKFORT      CLOUDY    84  71  65 CALM      30.03F
6HR MIN TEMP:  70; 6HR MAX TEMP:  88;

LOUISVILLE     PTSUNNY   91  70  49 S8        30.00F HX  96
6HR MIN TEMP:  75; 6HR MAX TEMP:  91;

LEBANON*         N/A     84  70  61 S5        30.04F
GLASGOW*       CLOUDY    87  74  64 SW3       30.04S HX  95
BOWLING GREEN  CLOUDY    83  74  74 S9        30.03F
6HR MIN TEMP:  74; 6HR MAX TEMP:  87;

$$

KYZ091>093-OHZ055-061-077-WVZ005-015-034-035-042-161900
...SOUTHERN OHIO/WEST VIRGINIA...

CITY           SKY/WX    TMP DP  RH WIND       PRES   REMARKS
COVINGTON      PTSUNNY   88  71  57 SW3       30.02F HX  94
COLUMBUS       CLOUDY    85  69  58 VRB7      30.03F
DAYTON         MOSUNNY   87  66  49 W6        30.04F
WILMINGTON     MOSUNNY   87  70  56 S8        30.04F HX  92
HUNTINGTON     PTSUNNY   86  70  58 VRB5      30.05F HX  90
CHARLESTON     MOSUNNY   87  68  52 CALM      30.06F HX  90
PINEVILLE*     SUNNY     85  65  51 MISG      30.16S
BECKLEY        PTSUNNY   82  62  50 W6        30.15F
BLUEFIELD      MOSUNNY   80  62  54 MISG      30.17F
LOGAN CO APT*    N/A     84  70  61 CALM      30.10F
$$

VAZ002-007-008-TNZ017-027-036-066-071-161900
...SOUTHWEST VIRGINIA/EAST TENNESSEE...

CITY           SKY/WX    TMP DP  RH WIND       PRES   REMARKS
WISE*          PTSUNNY   73  73 100 E3        30.18F
JONESVILLE*      N/A     84  70  61 SW8       30.11F
ABINGDON*      CLOUDY    84  71  65 W6        30.13F
BRISTOL        MOSUNNY   84  71  65 CALM      30.10F
MORRISTOWN*    PTCLDY    84  73  70 NW5       30.09S HX  91
SEVIERVILLE*   PTCLDY    88  70  55 VRB3      30.07S HX  92
KNOXVILLE      PTSUNNY   87  72  60 VRB5      30.07F HX  93
LAFOLLETTE*    PTCLDY    86  72  62 VRB5      30.11F HX  92
OAK RIDGE      LGT RAIN  83  71  67 VRB5      30.09S
CROSSVILLE     CLOUDY    80  70  71 VRB5      30.13F
NASHVILLE      PTSUNNY   87  74  64 SW5       30.04F HX  95
$$

...KEY TO REMARKS...
VSB - VISIBILITY IN MILES
WCI - WIND CHILL INDEX
HX  - HEAT INDEX

$$




USA.gov is the U.S. government's official web portal to all federal, state and local government web resources and services.